SFR383 FAEL-FAOR

Flight info

Callsign SFR383
Flight time 1h 13m
Altitude 31000
Route ELV DCT ETBIN UZ20 OKTEK UZ5 AVILO AVILO1B
Aircraft B738/M-SDE2E3FGHIRWXY/LB1

Departure

Time 2026-05-05 14:31
Airport King Phalo Airport (FAEL)

Arrival

Time 2026-05-05 15:45
Airport O.R. Tambo International Airport (FAOR)
Time Latitude Longitude Altitude Speed Heading
2026-05-05 14:01 -33.03749 27.82770 415 ft 0 kts 168°
2026-05-05 14:23 -33.03742 27.82768 442 ft 4 kts 171°
2026-05-05 14:23 -33.03717 27.82768 410 ft 4 kts 203°
2026-05-05 14:23 -33.03699 27.82785 405 ft 4 kts 248°
2026-05-05 14:24 -33.03695 27.82801 409 ft 1 kts 262°
2026-05-05 14:24 -33.03695 27.82804 409 ft 0 kts 262°
2026-05-05 14:27 -33.03696 27.82802 415 ft 2 kts 260°
2026-05-05 14:28 -33.03711 27.82801 415 ft 5 kts 142°
2026-05-05 14:28 -33.03703 27.82861 411 ft 8 kts 70°
2026-05-05 14:28 -33.03684 27.82923 413 ft 7 kts 71°
2026-05-05 14:28 -33.03672 27.82981 413 ft 7 kts 82°
2026-05-05 14:29 -33.03665 27.83039 410 ft 7 kts 82°
2026-05-05 14:29 -33.03658 27.83095 412 ft 7 kts 81°
2026-05-05 14:29 -33.03651 27.83150 409 ft 7 kts 81°
2026-05-05 14:29 -33.03644 27.83204 412 ft 7 kts 77°
2026-05-05 14:30 -33.03605 27.83250 411 ft 11 kts 12°
2026-05-05 14:30 -33.03513 27.83229 411 ft 14 kts 332°
2026-05-05 14:30 -33.03486 27.83130 413 ft 13 kts 263°
2026-05-05 14:30 -33.03502 27.83006 413 ft 21 kts 261°
2026-05-05 14:31 -33.03543 27.82652 416 ft 81 kts 262°
2026-05-05 14:31 -33.03665 27.81672 450 ft 154 kts 262°
2026-05-05 14:31 -33.03848 27.80328 1140 ft 171 kts 260°
2026-05-05 14:31 -33.04071 27.78870 2045 ft 185 kts 257°
2026-05-05 14:32 -33.04125 27.77221 2560 ft 223 kts 283°
2026-05-05 14:32 -33.03307 27.75552 2858 ft 243 kts 320°
2026-05-05 14:32 -33.01804 27.74707 3413 ft 242 kts 355°
2026-05-05 14:32 -33.00149 27.74936 3914 ft 246 kts 26°
2026-05-05 14:33 -32.98788 27.76232 4254 ft 261 kts 59°
2026-05-05 14:33 -32.97853 27.78120 4991 ft 268 kts 56°
2026-05-05 14:33 -32.96451 27.79592 5893 ft 273 kts 29°
2026-05-05 14:33 -32.94605 27.80075 6866 ft 276 kts
2026-05-05 14:34 -32.92718 27.79884 7736 ft 277 kts 355°
2026-05-05 14:34 -32.90793 27.79576 8561 ft 280 kts 354°
2026-05-05 14:34 -32.88856 27.79248 9415 ft 282 kts 353°
2026-05-05 14:34 -32.86909 27.78927 10225 ft 285 kts 353°
2026-05-05 14:35 -32.84879 27.78606 10520 ft 307 kts 353°
2026-05-05 14:35 -32.82678 27.78270 10710 ft 330 kts 353°
2026-05-05 14:35 -32.80316 27.77920 10895 ft 354 kts 354°
2026-05-05 14:35 -32.77806 27.77555 11185 ft 371 kts 353°
2026-05-05 14:36 -32.75211 27.77183 11761 ft 377 kts 353°
2026-05-05 14:36 -32.72606 27.76814 12553 ft 376 kts 352°
2026-05-05 14:36 -32.70016 27.76448 13429 ft 375 kts 351°
2026-05-05 14:36 -32.67414 27.76081 14071 ft 378 kts 351°
2026-05-05 14:37 -32.64792 27.75713 14693 ft 380 kts 351°
2026-05-05 14:37 -32.62172 27.75346 15364 ft 380 kts 351°
2026-05-05 14:37 -32.59545 27.74979 16018 ft 380 kts 351°
2026-05-05 14:37 -32.56916 27.74612 16670 ft 381 kts 351°
2026-05-05 14:38 -32.54271 27.74243 17296 ft 382 kts 351°
2026-05-05 14:38 -32.51625 27.73873 17880 ft 384 kts 351°
2026-05-05 14:38 -32.48982 27.73506 18649 ft 377 kts 350°
2026-05-05 14:38 -32.46385 27.73144 19328 ft 375 kts 350°
2026-05-05 14:39 -32.43818 27.72785 19753 ft 378 kts 350°
2026-05-05 14:39 -32.41193 27.72419 20186 ft 380 kts 350°
2026-05-05 14:39 -32.38565 27.72053 20733 ft 380 kts 350°
2026-05-05 14:39 -32.35936 27.71687 21214 ft 381 kts 350°
2026-05-05 14:40 -32.33296 27.71319 21660 ft 383 kts 350°
2026-05-05 14:40 -32.30645 27.70952 22130 ft 384 kts 350°
2026-05-05 14:40 -32.27985 27.70583 22565 ft 386 kts 350°
2026-05-05 14:40 -32.25314 27.70212 22992 ft 387 kts 350°
2026-05-05 14:41 -32.22631 27.69873 23327 ft 391 kts 353°
2026-05-05 14:41 -32.19891 27.69868 23696 ft 396 kts 359°
2026-05-05 14:41 -32.17147 27.70295 24034 ft 400 kts
2026-05-05 14:41 -32.14399 27.70879 24322 ft 402 kts
2026-05-05 14:42 -32.11637 27.71460 24639 ft 403 kts
2026-05-05 14:42 -32.08865 27.72037 24924 ft 405 kts
2026-05-05 14:42 -32.06078 27.72611 25223 ft 407 kts
2026-05-05 14:42 -32.03283 27.73183 25550 ft 408 kts
2026-05-05 14:43 -32.01426 27.73562 25722 ft 409 kts
2026-05-05 14:43 -31.98713 27.74113 25965 ft 411 kts
2026-05-05 14:43 -31.95887 27.74686 26233 ft 413 kts
2026-05-05 14:43 -31.93048 27.75262 26498 ft 414 kts
2026-05-05 14:44 -31.90206 27.75838 26739 ft 415 kts
2026-05-05 14:44 -31.87350 27.76417 27015 ft 416 kts
2026-05-05 14:44 -31.83581 27.77182 27457 ft 414 kts
2026-05-05 14:44 -31.81664 27.77571 27695 ft 413 kts
2026-05-05 14:45 -31.78831 27.78144 28058 ft 412 kts
2026-05-05 14:45 -31.76012 27.78715 28430 ft 411 kts
2026-05-05 14:45 -31.73189 27.79285 28756 ft 411 kts
2026-05-05 14:45 -31.70376 27.79853 29122 ft 410 kts
2026-05-05 14:46 -31.67575 27.80417 29276 ft 409 kts
2026-05-05 14:46 -31.64772 27.80983 29292 ft 409 kts
2026-05-05 14:46 -31.59163 27.82111 29280 ft 409 kts
2026-05-05 14:47 -31.53561 27.83237 29297 ft 408 kts
2026-05-05 14:47 -31.47962 27.84363 29286 ft 407 kts
2026-05-05 14:48 -31.42413 27.85475 29293 ft 407 kts
2026-05-05 14:48 -31.36845 27.86591 29287 ft 406 kts
2026-05-05 14:49 -31.31275 27.87709 29288 ft 406 kts
2026-05-05 14:49 -31.25710 27.88824 29282 ft 405 kts
2026-05-05 14:50 -31.20148 27.89936 29282 ft 405 kts
2026-05-05 14:50 -31.14579 27.91049 29291 ft 406 kts
2026-05-05 14:51 -31.09041 27.92156 29309 ft 405 kts
2026-05-05 14:51 -31.03468 27.93267 29299 ft 406 kts
2026-05-05 14:52 -30.97897 27.94378 29286 ft 407 kts
2026-05-05 14:52 -30.92299 27.95496 29289 ft 408 kts
2026-05-05 14:53 -30.86711 27.96609 29304 ft 407 kts
2026-05-05 14:53 -30.81107 27.97727 29707 ft 408 kts
2026-05-05 14:54 -30.78318 27.98287 30140 ft 405 kts
2026-05-05 14:54 -30.75563 27.98841 30539 ft 398 kts
2026-05-05 14:54 -30.72835 27.99385 30825 ft 398 kts
2026-05-05 14:54 -30.70104 27.99925 31000 ft 399 kts
2026-05-05 14:55 -30.67365 28.00467 31255 ft 398 kts
2026-05-05 14:55 -30.64679 28.01004 31631 ft 396 kts
2026-05-05 14:55 -30.61971 28.01544 32036 ft 393 kts
2026-05-05 14:55 -30.59255 28.02080 32023 ft 399 kts
2026-05-05 14:56 -30.53778 28.03164 32004 ft 397 kts
2026-05-05 14:56 -30.48388 28.04234 32003 ft 392 kts
2026-05-05 14:57 -30.43013 28.05289 32000 ft 390 kts
2026-05-05 14:57 -30.37703 28.06334 31938 ft 382 kts
2026-05-05 14:58 -30.32456 28.07361 31915 ft 385 kts
2026-05-05 14:58 -30.27162 28.08392 31924 ft 390 kts
2026-05-05 14:59 -30.21786 28.09445 31923 ft 393 kts
2026-05-05 14:59 -30.16383 28.10501 31918 ft 394 kts
2026-05-05 15:00 -30.11848 28.11388 31902 ft 394 kts
2026-05-05 15:00 -30.05608 28.12614 31931 ft 389 kts
2026-05-05 15:01 -30.00283 28.13652 31940 ft 387 kts
2026-05-05 15:01 -29.94987 28.14681 31934 ft 385 kts
2026-05-05 15:02 -29.89721 28.15702 31935 ft 389 kts
2026-05-05 15:02 -29.84341 28.16743 31937 ft 393 kts
2026-05-05 15:03 -29.78953 28.17790 31939 ft 392 kts
2026-05-05 15:03 -29.73571 28.18834 31963 ft 392 kts
2026-05-05 15:04 -29.68184 28.19879 31951 ft 393 kts
2026-05-05 15:04 -29.62795 28.20923 31962 ft 392 kts
2026-05-05 15:05 -29.54713 28.22484 31977 ft 393 kts
2026-05-05 15:06 -29.49325 28.23525 31974 ft 392 kts
2026-05-05 15:06 -29.43985 28.24555 31977 ft 391 kts
2026-05-05 15:07 -29.38614 28.25589 31982 ft 391 kts
2026-05-05 15:07 -29.33247 28.26621 31985 ft 392 kts
2026-05-05 15:08 -29.27858 28.27655 32012 ft 393 kts
2026-05-05 15:08 -29.22452 28.28693 31989 ft 394 kts
2026-05-05 15:09 -29.17040 28.29731 32004 ft 394 kts
2026-05-05 15:09 -29.11620 28.30768 31978 ft 394 kts
2026-05-05 15:10 -29.06225 28.31802 32018 ft 394 kts
2026-05-05 15:10 -29.00807 28.32837 32007 ft 395 kts
2026-05-05 15:11 -28.95396 28.33871 32002 ft 394 kts
2026-05-05 15:11 -28.90022 28.34895 32013 ft 394 kts
2026-05-05 15:12 -28.84640 28.35922 31976 ft 392 kts
2026-05-05 15:12 -28.79249 28.36947 31991 ft 391 kts
2026-05-05 15:13 -28.73799 28.37976 32005 ft 402 kts
2026-05-05 15:13 -28.68200 28.39036 32005 ft 412 kts
2026-05-05 15:14 -28.62536 28.40115 32008 ft 412 kts
2026-05-05 15:14 -28.56930 28.41182 31997 ft 413 kts
2026-05-05 15:15 -28.51259 28.42256 31993 ft 413 kts
2026-05-05 15:15 -28.45572 28.43331 32005 ft 414 kts
2026-05-05 15:16 -28.39892 28.44404 31999 ft 415 kts
2026-05-05 15:16 -28.34193 28.45480 31995 ft 415 kts
2026-05-05 15:17 -28.28496 28.46554 31995 ft 416 kts
2026-05-05 15:17 -28.22768 28.47632 32000 ft 419 kts
2026-05-05 15:18 -28.17032 28.48710 31997 ft 421 kts
2026-05-05 15:18 -28.11232 28.49809 31996 ft 424 kts
2026-05-05 15:19 -28.04228 28.51147 32003 ft 425 kts
2026-05-05 15:19 -27.97205 28.52060 32004 ft 418 kts 353°
2026-05-05 15:20 -27.88314 28.51018 31978 ft 415 kts 349°
2026-05-05 15:20 -27.76827 28.49663 31977 ft 415 kts 349°
2026-05-05 15:21 -27.65421 28.48345 32001 ft 414 kts 349°
2026-05-05 15:21 -27.53942 28.47020 31967 ft 414 kts 348°
2026-05-05 15:22 -27.47926 28.47167 31992 ft 425 kts
2026-05-05 15:22 -27.42194 28.49066 31992 ft 438 kts 16°
2026-05-05 15:23 -27.36082 28.52296 31523 ft 443 kts 17°
2026-05-05 15:23 -27.33306 28.53782 30909 ft 441 kts 17°
2026-05-05 15:23 -27.30532 28.55256 30233 ft 441 kts 17°
2026-05-05 15:23 -27.27754 28.56720 29605 ft 439 kts 17°
2026-05-05 15:24 -27.25000 28.58165 29000 ft 434 kts 17°
2026-05-05 15:24 -27.22279 28.59588 28479 ft 428 kts 17°
2026-05-05 15:24 -27.19618 28.60975 27949 ft 423 kts 17°
2026-05-05 15:24 -27.16960 28.62358 27420 ft 418 kts 17°
2026-05-05 15:25 -27.14332 28.63725 26912 ft 414 kts 17°
2026-05-05 15:25 -27.11761 28.65064 26763 ft 401 kts 16°
2026-05-05 15:25 -27.09261 28.66366 26578 ft 390 kts 16°
2026-05-05 15:25 -27.06829 28.67630 26413 ft 379 kts 15°
2026-05-05 15:26 -27.04471 28.68856 26273 ft 368 kts 15°
2026-05-05 15:26 -27.02178 28.70047 26128 ft 358 kts 15°
2026-05-05 15:26 -26.99925 28.70912 25965 ft 333 kts 359°
2026-05-05 15:26 -26.97695 28.70945 25797 ft 314 kts 347°
2026-05-05 15:27 -26.95589 28.70451 25408 ft 305 kts 336°
2026-05-05 15:27 -26.93674 28.69483 25087 ft 300 kts 329°
2026-05-05 15:27 -26.91837 28.68390 24748 ft 298 kts 328°
2026-05-05 15:27 -26.90042 28.67294 24400 ft 297 kts 328°
2026-05-05 15:28 -26.88249 28.66140 24018 ft 297 kts 322°
2026-05-05 15:28 -26.86711 28.64573 23467 ft 302 kts 312°
2026-05-05 15:28 -26.85385 28.62744 23031 ft 302 kts 306°
2026-05-05 15:28 -26.84312 28.60725 22684 ft 300 kts 300°
2026-05-05 15:29 -26.83366 28.58651 22334 ft 299 kts 300°
2026-05-05 15:29 -26.82441 28.56569 21964 ft 297 kts 300°
2026-05-05 15:29 -26.81834 28.55200 21714 ft 296 kts 299°
2026-05-05 15:29 -26.80917 28.53137 21355 ft 295 kts 299°
2026-05-05 15:30 -26.79692 28.50398 20810 ft 295 kts 300°
2026-05-05 15:30 -26.78775 28.48365 20339 ft 297 kts 300°
2026-05-05 15:30 -26.77839 28.46295 19877 ft 300 kts 300°
2026-05-05 15:30 -26.76892 28.44203 19410 ft 302 kts 300°
2026-05-05 15:31 -26.76251 28.42790 19103 ft 303 kts 300°
2026-05-05 15:31 -26.75294 28.40684 18640 ft 305 kts 300°
2026-05-05 15:31 -26.74341 28.38587 18193 ft 306 kts 300°
2026-05-05 15:31 -26.73373 28.36454 17690 ft 307 kts 300°
2026-05-05 15:32 -26.72403 28.34320 17185 ft 308 kts 300°
2026-05-05 15:32 -26.71432 28.32183 16676 ft 309 kts 300°
2026-05-05 15:32 -26.70457 28.30038 16187 ft 309 kts 300°
2026-05-05 15:32 -26.69488 28.27891 15702 ft 310 kts 297°
2026-05-05 15:33 -26.68910 28.25543 15224 ft 317 kts 283°
2026-05-05 15:33 -26.68680 28.23089 14773 ft 318 kts 281°
2026-05-05 15:33 -26.68509 28.20626 14305 ft 318 kts 280°
2026-05-05 15:33 -26.68348 28.18165 13841 ft 316 kts 280°
2026-05-05 15:34 -26.68197 28.15748 13305 ft 307 kts 279°
2026-05-05 15:34 -26.68054 28.13408 12921 ft 295 kts 279°
2026-05-05 15:34 -26.67886 28.11167 12543 ft 282 kts 285°
2026-05-05 15:34 -26.67141 28.09229 12148 ft 266 kts 309°
2026-05-05 15:35 -26.65700 28.08004 11772 ft 262 kts 336°
2026-05-05 15:35 -26.63897 28.07779 11408 ft 269 kts
2026-05-05 15:35 -26.62174 28.08610 11050 ft 283 kts 30°
2026-05-05 15:35 -26.60912 28.10387 10680 ft 299 kts 58°
2026-05-05 15:36 -26.60192 28.12541 10351 ft 293 kts 53°
2026-05-05 15:36 -26.58984 28.14247 10007 ft 273 kts 33°
2026-05-05 15:36 -26.57568 28.15615 9640 ft 267 kts 30°
2026-05-05 15:36 -26.56133 28.16924 9265 ft 264 kts 29°
2026-05-05 15:37 -26.54565 28.17846 8877 ft 249 kts
2026-05-05 15:37 -26.52902 28.18171 8513 ft 239 kts 356°
2026-05-05 15:37 -26.51245 28.18191 8139 ft 238 kts 355°
2026-05-05 15:37 -26.49597 28.18181 8074 ft 240 kts 355°
2026-05-05 15:38 -26.47941 28.18185 8011 ft 236 kts 356°
2026-05-05 15:38 -26.46325 28.18207 8018 ft 230 kts 355°
2026-05-05 15:38 -26.44735 28.18238 8011 ft 228 kts 355°
2026-05-05 15:38 -26.43133 28.18277 8012 ft 232 kts 356°
2026-05-05 15:39 -26.41538 28.18324 8015 ft 224 kts 356°
2026-05-05 15:39 -26.40004 28.18370 8019 ft 218 kts 356°
2026-05-05 15:39 -26.38499 28.18416 7999 ft 213 kts 356°
2026-05-05 15:39 -26.37048 28.18484 8008 ft 205 kts
2026-05-05 15:40 -26.35684 28.18847 8015 ft 198 kts 10°
2026-05-05 15:40 -26.34378 28.19280 8027 ft 192 kts
2026-05-05 15:40 -26.33138 28.19670 8008 ft 183 kts
2026-05-05 15:40 -26.31916 28.20047 8032 ft 179 kts
2026-05-05 15:41 -26.30719 28.20414 8024 ft 179 kts
2026-05-05 15:41 -26.29535 28.20780 8024 ft 178 kts
2026-05-05 15:41 -26.28339 28.21150 7968 ft 179 kts
2026-05-05 15:41 -26.27133 28.21523 7727 ft 174 kts
2026-05-05 15:42 -26.26038 28.21864 7524 ft 157 kts
2026-05-05 15:42 -26.25035 28.22173 7343 ft 147 kts
2026-05-05 15:42 -26.24039 28.22503 7169 ft 153 kts 11°
2026-05-05 15:42 -26.23018 28.22877 7077 ft 152 kts
2026-05-05 15:43 -26.21999 28.23146 6749 ft 151 kts
2026-05-05 15:43 -26.20938 28.23412 6456 ft 156 kts 10°
2026-05-05 15:43 -26.19907 28.23756 6278 ft 156 kts
2026-05-05 15:43 -26.18862 28.24064 6113 ft 152 kts 11°
2026-05-05 15:44 -26.17849 28.24392 5895 ft 151 kts 11°
2026-05-05 15:44 -26.16837 28.24701 5658 ft 148 kts 13°
2026-05-05 15:44 -26.15867 28.24993 5540 ft 133 kts
2026-05-05 15:44 -26.15172 28.25198 5522 ft 87 kts 18°
2026-05-05 15:45 -26.14816 28.25317 5512 ft 37 kts
2026-05-05 15:45 -26.14603 28.25302 5508 ft 27 kts 346°
2026-05-05 15:45 -26.14491 28.25229 5508 ft 16 kts 312°
2026-05-05 15:45 -26.14418 28.25150 5507 ft 11 kts 321°
2026-05-05 15:46 -26.14365 28.25096 5507 ft 13 kts 316°
2026-05-05 15:46 -26.14299 28.25023 5508 ft 13 kts 315°
2026-05-05 15:46 -26.14235 28.24953 5508 ft 13 kts 315°
2026-05-05 15:46 -26.14160 28.24870 5509 ft 16 kts 314°
2026-05-05 15:47 -26.14071 28.24773 5511 ft 18 kts 315°
2026-05-05 15:47 -26.14011 28.24708 5513 ft 18 kts 315°
2026-05-05 15:47 -26.13923 28.24569 5517 ft 17 kts 270°
2026-05-05 15:47 -26.13950 28.24445 5522 ft 16 kts 255°
2026-05-05 15:48 -26.13978 28.24327 5526 ft 15 kts 255°
2026-05-05 15:48 -26.13980 28.24212 5530 ft 15 kts 285°
2026-05-05 15:48 -26.13953 28.24105 5535 ft 14 kts 285°
2026-05-05 15:48 -26.13927 28.23999 5536 ft 14 kts 287°
2026-05-05 15:49 -26.13901 28.23902 5533 ft 13 kts 285°
2026-05-05 15:49 -26.13878 28.23806 5535 ft 13 kts 285°
2026-05-05 15:49 -26.13856 28.23715 5536 ft 13 kts 284°